QPF
0.00 0.00 0.00 0.00 0.00 0.00 0.00 0.00 0.00 0.00 0.00 0.00 0.00 0.00 0.00 0.00 0.00 0.00 0.00 0.00 0.00 0.00 0.00 0.00 0.00 0.00 0.00 0.00 0.00 0.00 0.00 0.00 0.00 0.00 0.00 0.00 0.00 0.00 0.00 0.00 0.00 0.00 0.00 0.00 0.00 0.00 0.00 0.01 0.03 0.01 0.00 0.00 0.13 0.01 0.00 0.00 0.00 0.00 0.00 0.00 0.00 0.00 0.00
0.00 0.00 0.00 0.00 0.00 0.00 0.00 0.00 0.00 0.00 0.00 0.00 0.00 0.00 0.00 0.00 0.00 0.00 0.00 0.00 0.00 0.00 0.00 0.00 0.00 0.00 0.00 0.00 0.00 0.00 0.00 0.00 0.00 0.00 0.00 0.00 0.00 0.00 0.00 0.00 0.00 0.00 0.00 0.00 0.00 0.00 0.00 0.00 0.01 0.00 0.00 0.01 0.06 0.00 0.00 0.00 0.00 0.00 0.00 0.00 0.00 0.00 0.00
0.00 0.00 0.00 0.00 0.00 0.00 0.00 0.00 0.00 0.00 0.00 0.00 0.00 0.00 0.00 0.00 0.00 0.00 0.00 0.00 0.00 0.00 0.00 0.00 0.00 0.00 0.00 0.00 0.00 0.00 0.00 0.00 0.00 0.00 0.00 0.00 0.00 0.00 0.00 0.00 0.00 0.00 0.00 0.00 0.00 0.00 0.00 0.00 0.00 0.00 0.00 0.00 0.00 0.00 0.00 0.00 0.00 0.00 0.00 0.00 0.00 0.00 0.00
0.00 0.00 0.00 0.00 0.00 0.00 0.00 0.00 0.00 0.00 0.00 0.00 0.00 0.00 0.00 0.00 0.00 0.00 0.00 0.00 0.00 0.00 0.00 0.00 0.00 0.00 0.00 0.00 0.00 0.00 0.00 0.00 0.00 0.00 0.00 0.00 0.00 0.00 0.00 0.00 0.00 0.00 0.00 0.00 0.00 0.00 0.00 0.00 0.00 0.00 0.00 0.00 0.00 0.00 0.00 0.00 0.00 0.00 0.00 0.00 0.00 0.00 0.00
0.00 0.00 0.00 0.00 0.00 0.00 0.00 0.00 0.00 0.00 0.00 0.00 0.00 0.00 0.00 0.00 0.00 0.00 0.00 0.00 0.00 0.00 0.00 0.00 0.00 0.00 0.00 0.00 0.00 0.00 0.00 0.00 0.00 0.00 0.00 0.00 0.00 0.00 0.00 0.00 0.00 0.00 0.00 0.00 0.00 0.00 0.00 0.00 0.00 0.00 0.00 0.00 0.00 0.00 0.00 0.00 0.00 0.00 0.00 0.00 0.00 0.00 0.00
0.00 0.00 0.00 0.00 0.00 0.00 0.00 0.00 0.00 0.00 0.00 0.00 0.00 0.00 0.00 0.00 0.00 0.00 0.00 0.00 0.00 0.00 0.00 0.00 0.00 0.00 0.00 0.00 0.00 0.00 0.00 0.00 0.00 0.00 0.00 0.00 0.00 0.00 0.00 0.00 0.00 0.00 0.00 0.00 0.00 0.00 0.00 0.00 0.00 0.00 0.00 0.00 0.00 0.00 0.00 0.00 0.00 0.00 0.00 0.00 0.00 0.00 0.00
0.00 0.00 0.00 0.00 0.00 0.00 0.00 0.00 0.00 0.00 0.00 0.00 0.00 0.00 0.00 0.00 0.00 0.00 0.00 0.00 0.00 0.00 0.00 0.00 0.00 0.00 0.00 0.00 0.00 0.00 0.00 0.00 0.00 0.00 0.00 0.00 0.00 0.00 0.00 0.00 0.00 0.00 0.00 0.00 0.00 0.00 0.00 0.00 0.00 0.00 0.00 0.00 0.00 0.00 0.00 0.00 0.00 0.00 0.00 0.00 0.00 0.00 0.00
0.00 0.00 0.00 0.00 0.00 0.00 0.00 0.00 0.00 0.00 0.00 0.00 0.00 0.00 0.00 0.00 0.00 0.00 0.00 0.00 0.00 0.00 0.00 0.00 0.00 0.00 0.00 0.00 0.00 0.00 0.00 0.00 0.00 0.00 0.00 0.00 0.00 0.00 0.00 0.00 0.00 0.00 0.00 0.00 0.00 0.00 0.00 0.00 0.00 0.00 0.00 0.00 0.00 0.00 0.00 0.00 0.00 0.00 0.00 0.00 0.00 0.00 0.00
0.00 0.00 0.00 0.00 0.00 0.00 0.00 0.00 0.00 0.00 0.00 0.00 0.00 0.00 0.00 0.00 0.00 0.00 0.00 0.00 0.00 0.00 0.00 0.00 0.00 0.00 0.00 0.00 0.00 0.00 0.00 0.00 0.00 0.00 0.00 0.00 0.00 0.00 0.00 0.00 0.00 0.00 0.00 0.00 0.00 0.00 0.00 0.00 0.00 0.00 0.00 0.00 0.00 0.00 0.00 0.00 0.00 0.00 0.00 0.00 0.00 0.00 0.00
0.00 0.00 0.00 0.00 0.00 0.00 0.00 0.00 0.00 0.00 0.00 0.00 0.00 0.00 0.00 0.00 0.00 0.00 0.00 0.00 0.00 0.00 0.00 0.00 0.00 0.00 0.00 0.00 0.00 0.00 0.00 0.00 0.00 0.00 0.00 0.00 0.00 0.00 0.00 0.00 0.00 0.00 0.00 0.00 0.00 0.00 0.00 0.00 0.00 0.00 0.00 0.00 0.00 0.00 0.00 0.00 0.00 0.00 0.00 0.00 0.00 0.00 0.00
0.00 0.00 0.00 0.00 0.00 0.00 0.00 0.00 0.00 0.00 0.00 0.00 0.00 0.00 0.00 0.00 0.00 0.00 0.00 0.00 0.00 0.00 0.00 0.00 0.00 0.00 0.00 0.00 0.00 0.00 0.00 0.00 0.00 0.00 0.00 0.00 0.00 0.00 0.00 0.00 0.00 0.00 0.00 0.00 0.00 0.00 0.00 0.00 0.00 0.00 0.00 0.00 0.00 0.00 0.00 0.00 0.00 0.00 0.00 0.00 0.00 0.00 0.00
0.00 0.00 0.00 0.00 0.00 0.00 0.00 0.00 0.00 0.00 0.00 0.00 0.00 0.00 0.00 0.00 0.00 0.00 0.00 0.00 0.00 0.00 0.00 0.00 0.00 0.00 0.00 0.00 0.00 0.00 0.00 0.00 0.00 0.00 0.00 0.00 0.00 0.00 0.00 0.00 0.00 0.00 0.00 0.00 0.00 0.00 0.00 0.00 0.00 0.00 0.00 0.00 0.00 0.00 0.00 0.00 0.00 0.00 0.00 0.00 0.00 0.00 0.00
0.00 0.00 0.00 0.00 0.00 0.00 0.00 0.00 0.00 0.00 0.00 0.00 0.00 0.00 0.00 0.00 0.00 0.00 0.00 0.00 0.00 0.00 0.00 0.00 0.00 0.00 0.00 0.00 0.00 0.00 0.00 0.00 0.00 0.00 0.00 0.00 0.00 0.00 0.00 0.00 0.00 0.00 0.00 0.00 0.00 0.00 0.00 0.00 0.00 0.00 0.00 0.00 0.00 0.00 0.00 0.00 0.00 0.00 0.00 0.00 0.00 0.00 0.00
0.00 0.00 0.00 0.00 0.00 0.00 0.00 0.00 0.00 0.00 0.00 0.00 0.00 0.00 0.00 0.00 0.00 0.00 0.00 0.00 0.00 0.00 0.00 0.00 0.00 0.00 0.00 0.00 0.00 0.00 0.00 0.00 0.00 0.00 0.00 0.00 0.00 0.00 0.00 0.00 0.00 0.00 0.00 0.00 0.00 0.00 0.00 0.00 0.00 0.00 0.00 0.00 0.00 0.00 0.00 0.00 0.00 0.00 0.00 0.00 0.00 0.00 0.00
0.00 0.00 0.00 0.00 0.00 0.00 0.00 0.00 0.00 0.00 0.00 0.00 0.00 0.00 0.00 0.00 0.00 0.00 0.00 0.00 0.00 0.00 0.00 0.00 0.00 0.00 0.00 0.00 0.00 0.00 0.00 0.00 0.00 0.00 0.00 0.00 0.00 0.00 0.00 0.00 0.00 0.00 0.00 0.00 0.00 0.00 0.00 0.00 0.00 0.00 0.00 0.00 0.00 0.00 0.00 0.00 0.00 0.00 0.00 0.00 0.00 0.00 0.00
0.00 0.00 0.00 0.00 0.00 0.00 0.00 0.00 0.00 0.00 0.00 0.00 0.00 0.00 0.00 0.00 0.00 0.00 0.00 0.00 0.00 0.00 0.00 0.00 0.00 0.00 0.00 0.00 0.00 0.00 0.00 0.00 0.00 0.00 0.00 0.00 0.00 0.00 0.00 0.00 0.00 0.00 0.00 0.00 0.00 0.00 0.00 0.00 0.00 0.00 0.00 0.00 0.00 0.00 0.00 0.00 0.00 0.00 0.00 0.00 0.00 0.00 0.00
0.00 0.00 0.00 0.00 0.00 0.00 0.00 0.00 0.00 0.00 0.00 0.00 0.00 0.00 0.00 0.00 0.00 0.00 0.00 0.00 0.00 0.00 0.00 0.00 0.00 0.00 0.00 0.00 0.00 0.00 0.00 0.00 0.00 0.00 0.00 0.00 0.00 0.00 0.00 0.00 0.00 0.00 0.00 0.00 0.00 0.00 0.00 0.00 0.00 0.00 0.00 0.00 0.00 0.00 0.00 0.00 0.00 0.00 0.00 0.00 0.00 0.00 0.00
0.00 0.00 0.00 0.00 0.00 0.00 0.00 0.00 0.00 0.00 0.00 0.00 0.00 0.00 0.00 0.00 0.00 0.00 0.00 0.00 0.00 0.00 0.00 0.00 0.00 0.00 0.00 0.00 0.00 0.00 0.00 0.00 0.00 0.00 0.00 0.00 0.00 0.00 0.00 0.00 0.00 0.00 0.00 0.00 0.00 0.00 0.00 0.00 0.00 0.00 0.00 0.00 0.00 0.00 0.00 0.00 0.00 0.00 0.00 0.00 0.00 0.00 0.00
0.00 0.00 0.00 0.00 0.00 0.00 0.00 0.00 0.00 0.00 0.00 0.00 0.00 0.00 0.00 0.00 0.00 0.00 0.00 0.00 0.00 0.00 0.00 0.00 0.00 0.00 0.00 0.00 0.00 0.00 0.00 0.00 0.00 0.00 0.00 0.00 0.00 0.00 0.00 0.00 0.00 0.00 0.00 0.00 0.00 0.00 0.00 0.00 0.00 0.00 0.00 0.00 0.00 0.00 0.00 0.00 0.00 0.00 0.00 0.00 0.00 0.00 0.00
0.01 0.02 0.01 0.00 0.01 0.05 0.00 0.01 0.01 0.00 0.00 0.00 0.00 0.00 0.00 0.00 0.00 0.00 0.00 0.00 0.00 0.00 0.00 0.00 0.00 0.00 0.00 0.00 0.00 0.00 0.00 0.00 0.00 0.00 0.00 0.00 0.00 0.00 0.00 0.00 0.00 0.00 0.00 0.00 0.00 0.00 0.00 0.00 0.00 0.00 0.00 0.00 0.00 0.00 0.00 0.00 0.00 0.00 0.00 0.00 0.00 0.00 0.00
0.15 0.22 0.25 0.09 0.18 0.09 0.03 0.03 0.03 0.01 0.01 0.01 0.00 0.00 0.00 0.00 0.00 0.00 0.00 0.00 0.00 0.00 0.00 0.00 0.00 0.00 0.00 0.00 0.00 0.00 0.00 0.00 0.00 0.00 0.00 0.00 0.00 0.00 0.00 0.00 0.00 0.00 0.00 0.00 0.00 0.00 0.00 0.00 0.00 0.00 0.00 0.00 0.00 0.00 0.00 0.00 0.00 0.00 0.00 0.00 0.00 0.00 0.00
0.32 0.34 0.55 0.32 0.36 0.40 0.29 0.27 0.19 0.06 0.03 0.01 0.00 0.00 0.00 0.00 0.00 0.00 0.00 0.00 0.00 0.00 0.00 0.00 0.00 0.00 0.00 0.00 0.00 0.00 0.00 0.00 0.00 0.00 0.00 0.00 0.00 0.00 0.00 0.00 0.00 0.00 0.00 0.00 0.00 0.00 0.00 0.00 0.00 0.00 0.00 0.00 0.00 0.00 0.00 0.00 0.00 0.00 0.00 0.00 0.00 0.00 0.00
0.29 0.24 0.26 0.09 0.12 0.13 0.13 0.11 0.10 0.10 0.06 0.04 0.01 0.00 0.00 0.00 0.00 0.00 0.00 0.00 0.00 0.00 0.00 0.00 0.00 0.00 0.00 0.00 0.00 0.00 0.00 0.00 0.00 0.00 0.00 0.00 0.00 0.00 0.00 0.00 0.00 0.00 0.00 0.00 0.00 0.00 0.00 0.00 0.00 0.00 0.00 0.00 0.00 0.00 0.00 0.00 0.00 0.00 0.00 0.00 0.00 0.00 0.00
0.06 0.02 0.02 0.11 0.00 0.00 0.00 0.00 0.00 0.01 0.01 0.01 0.00 0.00 0.00 0.00 0.00 0.00 0.00 0.00 0.00 0.00 0.00 0.00 0.00 0.00 0.00 0.00 0.00 0.00 0.00 0.00 0.00 0.00 0.00 0.00 0.00 0.00 0.00 0.00 0.00 0.00 0.00 0.00 0.00 0.00 0.00 0.00 0.00 0.00 0.00 0.00 0.00 0.00 0.00 0.00 0.00 0.00 0.00 0.00 0.00 0.00 0.00
0.22 0.22 0.18 0.09 0.10 0.00 0.00 0.00 0.00 0.00 0.00 0.00 0.00 0.00 0.00 0.00 0.00 0.00 0.00 0.00 0.00 0.00 0.00 0.00 0.00 0.00 0.00 0.00 0.00 0.00 0.00 0.00 0.00 0.00 0.00 0.00 0.00 0.00 0.00 0.00 0.00 0.00 0.00 0.00 0.00 0.00 0.00 0.00 0.00 0.00 0.00 0.00 0.00 0.00 0.00 0.00 0.00 0.00 0.00 0.00 0.00 0.00 0.00
0.02 0.00 0.02 0.02 0.01 0.00 0.00 0.00 0.10 0.03 0.01 0.01 0.00 0.00 0.00 0.00 0.00 0.00 0.00 0.00 0.00 0.00 0.00 0.00 0.00 0.00 0.00 0.00 0.00 0.00 0.00 0.00 0.00 0.00 0.00 0.00 0.00 0.00 0.00 0.00 0.00 0.00 0.00 0.00 0.00 0.00 0.00 0.00 0.00 0.00 0.00 0.00 0.00 0.00 0.00 0.00 0.00 0.00 0.00 0.00 0.00 0.00 0.00
0.00 0.01 0.00 0.00 0.02 0.01 0.00 0.00 0.00 0.00 0.00 0.00 0.00 0.00 0.00 0.00 0.00 0.00 0.00 0.00 0.00 0.00 0.00 0.00 0.00 0.00 0.00 0.00 0.00 0.00 0.00 0.00 0.00 0.00 0.00 0.00 0.00 0.00 0.00 0.00 0.00 0.00 0.00 0.00 0.00 0.00 0.00 0.00 0.00 0.00 0.00 0.00 0.00 0.00 0.00 0.00 0.00 0.00 0.00 0.00 0.00 0.00 0.00
0.01 0.00 0.02 0.02 0.02 0.02 0.00 0.00 0.00 0.00 0.00 0.00 0.00 0.00 0.00 0.00 0.00 0.00 0.00 0.00 0.00 0.00 0.00 0.00 0.00 0.00 0.00 0.00 0.00 0.00 0.00 0.00 0.00 0.00 0.00 0.00 0.00 0.00 0.00 0.00 0.00 0.00 0.00 0.00 0.00 0.00 0.00 0.00 0.00 0.00 0.00 0.00 0.00 0.00 0.00 0.00 0.00 0.00 0.00 0.00 0.00 0.00 0.00
0.00 0.00 0.03 0.02 0.14 0.17 0.05 0.00 0.00 0.00 0.00 0.00 0.00 0.00 0.00 0.00 0.00 0.00 0.00 0.00 0.00 0.00 0.00 0.00 0.00 0.00 0.00 0.00 0.00 0.00 0.00 0.00 0.00 0.00 0.00 0.00 0.00 0.00 0.00 0.00 0.00 0.00 0.00 0.00 0.00 0.00 0.00 0.00 0.00 0.00 0.00 0.00 0.00 0.00 0.00 0.00 0.00 0.00 0.00 0.00 0.00 0.04 0.05
0.00 0.00 0.00 0.00 0.00 0.05 0.05 0.02 0.00 0.00 0.01 0.14 0.00 0.00 0.00 0.00 0.00 0.00 0.00 0.00 0.00 0.00 0.00 0.00 0.00 0.00 0.00 0.00 0.00 0.00 0.00 0.00 0.00 0.00 0.00 0.00 0.00 0.00 0.00 0.00 0.00 0.00 0.00 0.00 0.00 0.00 0.00 0.00 0.00 0.01 0.00 0.00 0.00 0.01 0.00 0.00 0.00 0.00 0.00 0.01 0.10 0.04 0.05
0.00 0.00 0.00 0.00 0.00 0.00 0.00 0.00 0.00 0.00 0.00 0.00 0.21 0.05 0.00 0.00 0.00 0.00 0.00 0.00 0.00 0.00 0.00 0.00 0.00 0.00 0.00 0.00 0.00 0.00 0.00 0.00 0.00 0.00 0.00 0.00 0.00 0.00 0.00 0.00 0.00 0.00 0.00 0.00 0.00 0.00 0.00 0.00 0.07 0.33 0.00 0.00 0.00 0.00 0.00 0.00 0.00 0.00 0.00 0.00 0.00 0.00 0.00
0.00 0.00 0.00 0.00 0.00 0.00 0.00 0.00 0.00 0.00 0.00 0.00 0.00 0.00 0.00 0.00 0.00 0.00 0.00 0.00 0.00 0.00 0.00 0.00 0.00 0.00 0.00 0.00 0.00 0.00 0.00 0.12 0.11 0.00 0.00 0.00 0.00 0.04 0.86 0.15 0.00 0.00 0.00 0.00 0.00 0.00 0.00 0.00 0.11 0.51 0.04 0.01 0.00 0.00 0.00 0.00 0.00 0.00 0.00 0.00 0.00 0.00 0.00
0.00 0.00 0.00 0.00 0.00 0.00 0.00 0.00 0.00 0.00 0.00 0.00 0.00 0.00 0.00 0.00 0.00 0.00 0.00 0.00 0.00 0.00 0.00 0.00 0.00 0.00 0.00 0.00 0.00 0.00 0.00 0.00 0.00 0.03 0.00 0.00 0.01 0.16 1.08 0.67 0.00 0.00 0.00 0.00 0.00 0.00 0.00 0.00 0.06 0.22 0.02 0.02 0.02 0.00 0.00 0.00 0.00 0.05 0.00 0.03 0.07 0.04 0.05
0.00 0.00 0.00 0.00 0.00 0.00 0.00 0.00 0.00 0.00 0.00 0.00 0.00 0.00 0.00 0.00 0.00 0.00 0.00 0.00 0.00 0.00 0.00 0.00 0.00 0.00 0.00 0.00 0.00 0.00 0.00 0.00 0.00 0.00 0.00 0.00 0.00 0.00 0.01 0.12 0.11 0.00 0.00 0.00 0.00 0.00 0.00 0.00 0.00 0.00 0.00 0.00 0.00 0.00 0.00 0.00 0.00 0.10 0.02 0.00 0.00 0.00 0.00
0.00 0.00 0.00 0.00 0.00 0.00 0.00 0.00 0.00 0.00 0.00 0.00 0.00 0.00 0.00 0.00 0.00 0.00 0.00 0.00 0.00 0.00 0.00 0.00 0.00 0.00 0.00 0.00 0.00 0.00 0.00 0.00 0.00 0.00 0.00 0.00 0.00 0.00 0.00 0.00 0.02 0.08 0.00 0.00 0.00 0.00 0.00 0.00 0.00 0.00 0.00 0.00 0.00 0.00 0.00 0.02 0.01 0.00 0.02 0.02 0.00 0.00 0.00
0.00 0.00 0.00 0.00 0.00 0.00 0.00 0.00 0.00 0.00 0.00 0.00 0.00 0.00 0.00 0.00 0.00 0.00 0.00 0.00 0.00 0.00 0.00 0.00 0.00 0.00 0.00 0.00 0.00 0.00 0.00 0.00 0.00 0.00 0.00 0.00 0.00 0.00 0.00 0.00 0.00 0.00 0.00 0.00 0.00 0.00 0.00 0.00 0.00 0.00 0.00 0.00 0.00 0.00 0.00 0.00 0.00 0.00 0.00 0.00 0.00 0.00 0.02
0.00 0.00 0.00 0.00 0.00 0.00 0.00 0.00 0.00 0.00 0.00 0.00 0.00 0.00 0.00 0.00 0.00 0.00 0.00 0.00 0.00 0.00 0.00 0.00 0.00 0.00 0.00 0.00 0.00 0.00 0.00 0.00 0.00 0.00 0.00 0.00 0.00 0.00 0.00 0.00 0.00 0.00 0.00 0.00 0.00 0.00 0.00 0.00 0.00 0.00 0.00 0.00 0.00 0.00 0.01 0.02 0.04 0.02 0.02 0.02 0.02 0.02 0.04
MSLP
1016.90 1017.18 1017.34 1017.50 1017.58 1017.66 1017.86 1018.10 1018.30 1018.46 1018.54 1018.58 1018.66 1018.78 1018.82 1018.94 1019.10 1019.34 1019.50 1019.70 1019.82 1019.98 1020.06 1020.22 1020.38 1020.46 1020.58 1020.70 1020.78 1020.86 1021.02 1021.10 1021.22 1021.38 1021.70 1021.86 1021.86 1022.18 1022.34 1022.22 1022.38 1022.50 1022.50 1022.42 1022.62 1023.14 1023.98 1024.70 1025.18 1025.02 1024.90 1024.94 1024.94 1024.98 1025.02 1025.10 1025.26 1025.46 1025.58 1025.66 1025.74 1025.78 1025.82
1016.82 1017.10 1017.42 1017.58 1017.70 1017.78 1018.02 1018.26 1018.34 1018.46 1018.54 1018.62 1018.66 1018.74 1018.82 1018.94 1019.06 1019.26 1019.42 1019.58 1019.74 1019.86 1019.98 1020.10 1020.26 1020.38 1020.46 1020.62 1020.86 1021.02 1021.10 1021.18 1021.22 1021.26 1021.46 1021.66 1021.78 1022.02 1022.22 1022.46 1022.38 1022.46 1022.54 1022.58 1022.74 1022.82 1023.62 1024.34 1024.86 1024.90 1025.22 1025.14 1024.98 1025.14 1025.22 1025.18 1025.30 1025.38 1025.50 1025.62 1025.70 1025.78 1025.86
1016.98 1017.34 1017.50 1017.82 1017.90 1017.94 1018.10 1018.30 1018.42 1018.54 1018.62 1018.70 1018.70 1018.74 1018.86 1018.98 1019.10 1019.22 1019.38 1019.46 1019.58 1019.74 1019.86 1020.02 1020.14 1020.34 1020.46 1020.50 1020.66 1020.78 1020.98 1021.14 1021.18 1021.26 1021.30 1021.46 1021.62 1021.90 1021.94 1022.06 1022.34 1022.70 1022.70 1022.94 1023.02 1023.10 1023.42 1023.38 1024.10 1024.82 1024.78 1024.74 1024.98 1025.46 1025.30 1025.26 1025.34 1025.42 1025.50 1025.62 1025.70 1025.82 1025.90
1017.06 1017.34 1017.74 1017.98 1018.06 1018.14 1018.18 1018.30 1018.34 1018.46 1018.58 1018.66 1018.74 1018.78 1018.86 1019.02 1019.10 1019.22 1019.30 1019.42 1019.54 1019.66 1019.82 1019.98 1020.10 1020.18 1020.30 1020.42 1020.50 1020.66 1020.86 1021.02 1021.14 1021.22 1021.34 1021.46 1021.62 1021.82 1021.98 1021.90 1022.02 1022.10 1022.22 1022.58 1022.90 1022.94 1023.06 1023.74 1024.22 1024.74 1024.86 1024.82 1024.90 1025.30 1025.54 1025.54 1025.50 1025.58 1025.58 1025.66 1025.66 1025.82 1025.90
1016.94 1017.30 1017.50 1017.78 1017.94 1018.06 1018.22 1018.34 1018.50 1018.50 1018.58 1018.70 1018.74 1018.78 1018.94 1019.02 1019.10 1019.22 1019.30 1019.50 1019.62 1019.70 1019.78 1019.86 1019.98 1020.10 1020.18 1020.30 1020.42 1020.50 1020.66 1020.86 1021.02 1021.22 1021.34 1021.50 1021.66 1021.78 1021.90 1021.94 1021.94 1022.02 1022.18 1022.14 1022.46 1022.54 1022.82 1023.26 1023.46 1024.42 1024.90 1025.06 1025.26 1025.58 1025.70 1025.66 1025.66 1025.66 1025.70 1025.74 1025.82 1025.86 1025.98
1016.78 1017.02 1017.30 1017.58 1017.86 1017.98 1018.30 1018.46 1018.54 1018.62 1018.82 1018.86 1018.86 1018.78 1018.78 1018.98 1019.10 1019.22 1019.34 1019.42 1019.58 1019.66 1019.74 1019.90 1019.98 1020.06 1020.18 1020.30 1020.38 1020.46 1020.58 1020.70 1020.86 1021.10 1021.34 1021.50 1021.66 1021.70 1021.74 1021.90 1021.94 1022.02 1022.02 1022.14 1022.30 1022.58 1022.74 1022.94 1023.42 1024.42 1025.02 1024.86 1025.10 1025.70 1025.66 1025.58 1025.50 1025.74 1025.82 1025.86 1025.94 1026.02 1026.06
1016.78 1016.94 1017.22 1017.46 1017.82 1017.98 1018.14 1018.26 1018.42 1018.62 1018.82 1018.82 1018.90 1018.78 1018.78 1018.98 1019.10 1019.22 1019.22 1019.38 1019.50 1019.66 1019.78 1019.90 1020.02 1020.06 1020.14 1020.26 1020.34 1020.46 1020.50 1020.58 1020.78 1020.98 1021.22 1021.54 1021.74 1021.70 1021.74 1021.78 1021.90 1021.98 1022.06 1022.18 1022.30 1022.46 1022.78 1023.18 1023.66 1023.86 1024.66 1025.18 1025.42 1025.54 1025.54 1025.50 1025.70 1025.54 1025.66 1025.86 1025.98 1026.10 1026.14
1016.62 1016.98 1017.26 1017.42 1017.70 1017.98 1018.22 1018.26 1018.54 1018.70 1018.74 1018.86 1018.78 1018.82 1018.98 1019.02 1019.14 1019.22 1019.26 1019.38 1019.54 1019.66 1019.82 1019.90 1020.02 1020.14 1020.22 1020.30 1020.38 1020.46 1020.54 1020.62 1020.74 1020.90 1021.10 1021.42 1021.66 1021.78 1021.78 1021.74 1021.86 1021.98 1022.06 1022.22 1022.22 1022.30 1022.34 1022.58 1022.98 1023.50 1023.82 1024.94 1025.66 1025.66 1025.58 1025.62 1025.66 1025.58 1025.58 1025.78 1025.98 1026.02 1026.14
1016.58 1016.94 1017.22 1017.50 1017.66 1017.86 1018.18 1018.26 1018.50 1018.62 1018.62 1018.74 1018.90 1018.94 1019.02 1019.14 1019.18 1019.22 1019.34 1019.46 1019.58 1019.70 1019.82 1019.94 1020.02 1020.10 1020.22 1020.30 1020.46 1020.54 1020.62 1020.78 1020.86 1020.98 1021.10 1021.34 1021.54 1021.70 1021.70 1021.82 1021.90 1022.02 1022.14 1022.18 1022.26 1022.30 1022.34 1022.46 1022.74 1023.06 1023.22 1023.46 1024.42 1025.78 1025.78 1025.78 1025.86 1025.70 1025.86 1025.70 1025.98 1026.06 1026.10
1016.50 1016.74 1017.10 1017.50 1017.74 1018.02 1018.18 1018.34 1018.38 1018.54 1018.70 1018.74 1018.86 1019.02 1019.06 1019.22 1019.30 1019.30 1019.38 1019.54 1019.66 1019.82 1019.98 1020.10 1020.14 1020.18 1020.26 1020.30 1020.42 1020.58 1020.66 1020.86 1020.94 1020.98 1021.18 1021.34 1021.50 1021.62 1021.70 1021.74 1021.78 1021.98 1022.18 1022.26 1022.34 1022.42 1022.50 1022.70 1022.74 1022.82 1022.82 1023.06 1023.46 1024.42 1025.62 1025.82 1025.82 1025.70 1025.82 1025.82 1025.82 1025.86 1026.06
1016.46 1016.74 1017.02 1017.38 1017.74 1018.02 1018.26 1018.34 1018.42 1018.54 1018.66 1018.82 1018.90 1019.06 1019.18 1019.26 1019.34 1019.42 1019.50 1019.62 1019.78 1019.94 1020.10 1020.22 1020.26 1020.34 1020.42 1020.50 1020.58 1020.66 1020.74 1020.86 1020.94 1021.18 1021.42 1021.50 1021.58 1021.62 1021.66 1021.78 1021.86 1022.02 1022.18 1022.22 1022.34 1022.46 1022.58 1022.74 1022.94 1023.02 1023.18 1023.30 1023.22 1023.86 1024.58 1025.14 1025.42 1025.70 1025.50 1025.90 1025.86 1025.66 1026.10
1016.54 1016.74 1017.06 1017.38 1017.70 1017.94 1018.10 1018.26 1018.34 1018.54 1018.78 1018.86 1018.94 1019.10 1019.26 1019.34 1019.42 1019.58 1019.66 1019.70 1019.82 1019.94 1020.10 1020.26 1020.34 1020.42 1020.42 1020.54 1020.66 1020.74 1020.86 1020.90 1021.02 1021.18 1021.46 1021.54 1021.62 1021.62 1021.58 1021.70 1021.94 1022.06 1022.22 1022.34 1022.46 1022.58 1022.70 1022.86 1023.06 1023.22 1023.42 1023.54 1023.70 1023.62 1024.14 1024.70 1025.10 1025.42 1025.58 1025.46 1025.54 1025.78 1025.78
1016.66 1016.94 1017.22 1017.42 1017.74 1017.86 1017.98 1018.18 1018.46 1018.66 1018.74 1018.90 1019.02 1019.18 1019.30 1019.42 1019.54 1019.62 1019.82 1019.86 1019.94 1020.02 1020.06 1020.18 1020.30 1020.42 1020.46 1020.58 1020.66 1020.74 1020.98 1021.02 1021.14 1021.22 1021.34 1021.50 1021.54 1021.58 1021.58 1021.70 1021.94 1022.06 1022.26 1022.34 1022.46 1022.58 1022.78 1022.98 1023.10 1023.26 1023.50 1023.74 1023.90 1024.10 1024.18 1024.34 1024.42 1024.78 1025.46 1025.38 1025.38 1025.58 1025.86
1016.78 1016.94 1017.18 1017.38 1017.54 1017.78 1018.02 1018.22 1018.46 1018.62 1018.82 1018.90 1019.06 1019.22 1019.38 1019.54 1019.66 1019.78 1019.86 1019.98 1020.02 1020.10 1020.14 1020.22 1020.34 1020.42 1020.46 1020.54 1020.74 1020.78 1020.94 1021.02 1021.10 1021.26 1021.26 1021.38 1021.50 1021.58 1021.66 1021.78 1022.02 1022.14 1022.18 1022.22 1022.38 1022.58 1022.78 1022.98 1023.26 1023.46 1023.70 1023.82 1023.94 1024.14 1024.22 1024.42 1024.62 1025.02 1025.42 1025.82 1025.50 1025.46 1025.86
1016.74 1016.90 1017.06 1017.30 1017.38 1017.62 1017.90 1018.18 1018.46 1018.66 1018.70 1018.98 1019.14 1019.26 1019.42 1019.62 1019.82 1019.94 1020.02 1020.10 1020.18 1020.22 1020.26 1020.34 1020.42 1020.42 1020.42 1020.50 1020.70 1020.82 1020.86 1020.94 1021.06 1021.18 1021.14 1021.18 1021.38 1021.54 1021.70 1021.82 1022.06 1022.18 1022.26 1022.18 1022.34 1022.50 1022.74 1022.98 1023.14 1023.38 1023.58 1023.70 1023.86 1024.02 1024.10 1024.10 1024.74 1024.86 1025.06 1025.34 1025.38 1025.78 1025.78
1016.82 1017.02 1017.18 1017.34 1017.46 1017.66 1017.94 1018.22 1018.42 1018.50 1018.78 1019.06 1019.30 1019.34 1019.50 1019.66 1019.82 1020.02 1020.14 1020.26 1020.30 1020.38 1020.38 1020.42 1020.54 1020.54 1020.58 1020.58 1020.66 1020.82 1020.94 1021.02 1021.10 1021.06 1021.02 1021.18 1021.34 1021.54 1021.66 1021.82 1022.02 1022.22 1022.30 1022.34 1022.38 1022.46 1022.70 1022.82 1023.06 1023.14 1023.42 1023.66 1023.74 1023.90 1023.98 1023.94 1024.14 1024.66 1024.90 1025.06 1025.34 1025.30 1025.50
1016.90 1017.22 1017.42 1017.70 1017.82 1017.94 1018.06 1018.26 1018.42 1018.58 1018.86 1019.14 1019.30 1019.58 1019.74 1019.74 1019.86 1019.94 1020.06 1020.26 1020.38 1020.42 1020.46 1020.46 1020.54 1020.66 1020.70 1020.70 1020.70 1020.82 1020.98 1021.06 1021.18 1021.18 1021.10 1021.18 1021.38 1021.58 1021.62 1021.74 1021.90 1022.10 1022.18 1022.26 1022.46 1022.54 1022.74 1022.86 1022.98 1023.18 1023.38 1023.66 1023.74 1023.86 1023.98 1024.02 1023.78 1024.06 1024.86 1024.90 1025.30 1025.14 1025.42
1017.02 1017.26 1017.50 1017.74 1018.06 1018.34 1018.46 1018.50 1018.54 1018.66 1018.90 1019.18 1019.42 1019.62 1019.78 1019.94 1019.90 1019.94 1020.02 1020.18 1020.30 1020.42 1020.46 1020.54 1020.50 1020.62 1020.78 1020.90 1020.90 1020.86 1020.94 1021.06 1021.10 1021.22 1021.22 1021.26 1021.38 1021.54 1021.66 1021.62 1021.78 1021.94 1022.02 1022.14 1022.54 1022.58 1022.70 1022.74 1022.94 1023.10 1023.26 1023.54 1023.70 1023.94 1024.14 1024.14 1024.02 1023.98 1024.42 1024.66 1024.98 1025.58 1025.66
1017.22 1017.42 1017.62 1017.86 1018.22 1018.50 1018.58 1018.66 1018.78 1018.98 1019.06 1019.18 1019.50 1019.62 1019.74 1019.94 1019.98 1019.98 1020.06 1020.14 1020.22 1020.38 1020.50 1020.54 1020.54 1020.54 1020.66 1020.86 1020.98 1021.02 1021.02 1021.02 1021.06 1021.10 1021.22 1021.38 1021.42 1021.58 1021.58 1021.66 1021.82 1021.94 1021.94 1021.90 1022.14 1022.42 1022.62 1022.66 1022.86 1022.98 1023.14 1023.38 1023.62 1023.86 1024.02 1024.18 1024.18 1024.14 1024.14 1024.42 1024.70 1025.18 1025.74
1017.54 1017.70 1017.86 1018.10 1018.42 1018.58 1018.66 1018.74 1018.82 1019.10 1019.46 1019.54 1019.42 1019.54 1019.78 1019.90 1020.06 1020.10 1020.22 1020.26 1020.26 1020.34 1020.46 1020.54 1020.58 1020.66 1020.70 1020.82 1020.90 1021.06 1021.18 1021.22 1021.18 1021.22 1021.30 1021.46 1021.58 1021.62 1021.70 1021.74 1021.78 1021.86 1021.82 1021.82 1021.90 1021.98 1022.26 1022.50 1022.62 1022.74 1022.90 1023.14 1023.42 1023.58 1023.82 1023.94 1024.06 1024.10 1024.22 1024.54 1025.02 1025.06 1025.26
1018.06 1018.02 1017.94 1018.02 1018.26 1018.54 1018.66 1018.82 1019.02 1019.26 1019.58 1019.78 1019.86 1019.86 1019.78 1019.86 1020.06 1020.18 1020.26 1020.30 1020.42 1020.50 1020.54 1020.58 1020.62 1020.70 1020.74 1020.86 1020.94 1021.06 1021.18 1021.26 1021.30 1021.38 1021.42 1021.58 1021.70 1021.74 1021.82 1021.82 1021.70 1021.74 1021.66 1021.66 1021.62 1021.78 1022.02 1022.02 1022.50 1022.54 1023.02 1023.10 1023.30 1023.46 1023.62 1023.86 1023.98 1024.06 1024.22 1024.42 1024.54 1024.86 1025.22
1018.26 1018.38 1018.42 1018.26 1018.74 1018.86 1018.90 1019.18 1019.58 1019.74 1019.90 1019.94 1020.02 1020.02 1020.02 1020.10 1020.14 1020.22 1020.30 1020.30 1020.34 1020.42 1020.38 1020.42 1020.50 1020.54 1020.58 1020.70 1020.82 1020.90 1021.10 1021.18 1021.30 1021.38 1021.50 1021.58 1021.74 1021.78 1021.82 1021.86 1021.86 1021.86 1021.82 1021.78 1021.94 1021.98 1022.02 1022.14 1022.30 1022.50 1022.98 1023.10 1023.22 1023.38 1023.62 1023.86 1023.94 1024.06 1024.30 1024.42 1024.62 1024.98 1025.06
1018.78 1018.82 1018.90 1018.94 1018.86 1019.10 1019.10 1019.46 1019.82 1020.02 1020.06 1020.30 1020.42 1020.30 1020.18 1020.14 1020.14 1020.22 1020.22 1020.22 1020.22 1020.26 1020.26 1020.34 1020.42 1020.50 1020.58 1020.58 1020.70 1020.86 1021.02 1021.10 1021.22 1021.30 1021.42 1021.58 1021.70 1021.86 1021.86 1021.90 1021.90 1021.90 1021.94 1021.98 1021.94 1022.06 1022.22 1022.38 1022.38 1022.30 1022.38 1022.86 1023.02 1023.22 1023.38 1023.62 1023.82 1023.94 1024.14 1024.26 1024.34 1024.62 1024.86
1019.22 1019.34 1019.50 1019.46 1019.54 1019.70 1019.70 1019.78 1020.02 1020.02 1020.14 1020.46 1020.54 1020.46 1020.34 1020.26 1020.30 1020.34 1020.34 1020.30 1020.14 1020.10 1020.18 1020.30 1020.38 1020.46 1020.50 1020.66 1020.78 1020.82 1020.82 1020.94 1021.10 1021.22 1021.34 1021.42 1021.50 1021.66 1021.86 1021.98 1021.98 1021.94 1021.90 1021.98 1022.14 1022.34 1022.42 1022.42 1022.42 1022.50 1022.62 1022.54 1022.46 1022.54 1023.10 1023.42 1023.50 1023.78 1023.78 1023.78 1024.26 1024.58 1024.34
1019.62 1019.74 1019.82 1019.94 1020.02 1020.18 1020.18 1020.34 1020.50 1020.50 1020.54 1020.78 1020.82 1020.74 1020.66 1020.74 1020.58 1020.46 1020.34 1020.34 1020.42 1020.54 1020.58 1020.78 1020.78 1020.70 1020.78 1020.78 1020.78 1020.78 1020.90 1020.90 1020.98 1021.06 1021.14 1021.22 1021.30 1021.46 1021.58 1021.74 1021.90 1021.98 1021.98 1021.98 1022.02 1022.14 1022.30 1022.38 1022.46 1022.58 1022.66 1022.74 1022.82 1022.74 1022.54 1022.50 1023.02 1023.74 1023.74 1023.70 1024.10 1024.02 1024.14
1020.30 1020.34 1020.62 1020.70 1020.62 1020.54 1020.66 1020.74 1020.86 1020.90 1021.06 1021.26 1021.06 1020.98 1021.26 1021.06 1020.94 1020.86 1020.62 1020.42 1020.50 1020.70 1020.78 1020.98 1020.86 1020.86 1020.90 1021.02 1021.14 1021.10 1020.98 1021.02 1021.02 1021.06 1021.14 1021.10 1021.10 1021.14 1021.22 1021.30 1021.38 1021.62 1021.78 1021.86 1021.90 1021.98 1021.98 1022.06 1022.38 1022.54 1022.66 1022.82 1022.94 1022.86 1022.78 1022.74 1022.58 1022.50 1022.98 1023.34 1023.34 1023.70 1023.78
1020.94 1021.10 1021.14 1021.14 1021.14 1021.06 1021.18 1021.46 1021.58 1021.58 1021.62 1021.54 1021.42 1021.42 1021.46 1021.50 1021.42 1021.34 1021.26 1021.10 1020.94 1021.02 1021.18 1021.38 1021.30 1021.22 1021.10 1021.10 1021.22 1021.26 1021.18 1021.14 1021.10 1021.14 1021.14 1021.18 1021.22 1021.14 1021.02 1020.98 1021.02 1021.06 1021.22 1021.42 1021.58 1021.74 1021.86 1022.02 1022.14 1022.30 1022.38 1022.46 1022.50 1022.66 1022.90 1022.90 1022.86 1022.94 1022.86 1022.78 1022.94 1023.06 1023.22
1021.50 1021.58 1021.66 1021.66 1021.70 1021.74 1021.82 1021.86 1021.86 1022.02 1022.10 1022.10 1021.94 1021.86 1021.90 1021.86 1021.90 1021.82 1021.70 1021.58 1021.38 1021.38 1021.62 1021.70 1021.58 1021.58 1021.46 1021.30 1021.18 1021.18 1021.18 1021.26 1021.22 1021.10 1021.10 1021.10 1021.06 1021.06 1021.10 1021.10 1021.10 1020.94 1021.02 1021.22 1021.30 1021.34 1021.50 1021.70 1022.06 1022.22 1022.34 1022.30 1022.38 1022.54 1022.74 1022.86 1022.98 1023.06 1023.02 1022.94 1022.74 1022.54 1022.58
1021.98 1022.06 1022.14 1022.10 1022.14 1022.30 1022.38 1022.30 1022.26 1022.34 1022.30 1022.34 1022.30 1022.18 1022.10 1022.18 1022.26 1022.22 1022.14 1021.98 1021.82 1021.82 1021.94 1021.94 1021.86 1021.82 1021.82 1021.74 1021.54 1021.30 1021.22 1021.10 1021.06 1021.02 1020.98 1020.98 1020.94 1020.90 1020.98 1021.14 1021.22 1021.26 1021.26 1021.34 1021.34 1021.58 1021.82 1022.06 1022.10 1022.10 1022.18 1022.26 1022.54 1022.78 1022.94 1023.30 1023.34 1023.34 1023.18 1023.06 1022.98 1022.94 1022.94
1022.46 1022.54 1022.54 1022.54 1022.74 1022.90 1022.94 1022.78 1022.70 1022.58 1022.34 1022.46 1022.50 1022.54 1022.66 1022.74 1022.78 1022.66 1022.50 1022.38 1022.30 1022.34 1022.30 1022.30 1022.18 1022.10 1022.10 1022.06 1021.70 1021.58 1021.46 1021.30 1021.18 1021.06 1020.86 1020.86 1020.94 1020.98 1021.06 1021.14 1021.22 1021.22 1021.34 1021.34 1021.34 1021.66 1022.02 1022.18 1022.14 1022.06 1021.98 1022.06 1022.38 1022.66 1022.66 1023.10 1023.30 1023.22 1023.14 1023.10 1023.06 1022.98 1022.94
1022.90 1022.98 1022.94 1023.06 1023.18 1023.30 1023.30 1023.22 1023.18 1023.06 1022.90 1022.86 1022.98 1023.18 1023.10 1022.94 1022.98 1022.98 1022.90 1022.82 1022.78 1022.78 1022.74 1022.62 1022.50 1022.42 1022.34 1022.26 1022.18 1021.94 1021.74 1021.50 1021.26 1021.14 1020.98 1020.94 1021.10 1021.34 1021.50 1021.42 1021.38 1021.34 1021.22 1021.06 1021.06 1021.34 1021.66 1021.86 1021.86 1021.86 1022.10 1022.06 1021.98 1022.14 1022.22 1022.78 1023.02 1023.22 1023.30 1023.26 1023.26 1023.22 1023.26
1023.30 1023.34 1023.38 1023.50 1023.46 1023.42 1023.42 1023.46 1023.46 1023.38 1023.34 1023.34 1023.42 1023.42 1023.26 1023.14 1023.14 1023.22 1023.26 1023.26 1023.10 1023.06 1023.06 1022.90 1022.82 1022.78 1022.66 1022.58 1022.42 1022.26 1021.98 1021.66 1021.30 1021.02 1021.06 1020.90 1021.02 1021.38 1021.34 1021.14 1020.70 1020.78 1020.90 1020.86 1021.02 1021.30 1021.54 1021.66 1021.66 1021.90 1021.78 1021.66 1021.94 1022.02 1021.78 1022.34 1022.74 1022.86 1023.14 1023.18 1023.42 1023.42 1023.62
1023.54 1023.54 1023.62 1023.70 1023.74 1023.74 1023.74 1023.70 1023.70 1023.66 1023.62 1023.62 1023.54 1023.46 1023.42 1023.38 1023.30 1023.30 1023.30 1023.18 1023.22 1023.30 1023.26 1023.22 1023.14 1023.14 1023.10 1022.94 1022.74 1022.54 1022.30 1021.98 1021.74 1021.42 1021.26 1021.26 1021.06 1021.26 1021.34 1021.02 1020.46 1020.42 1020.58 1020.58 1020.62 1020.98 1021.46 1021.54 1021.50 1021.62 1021.66 1021.62 1021.66 1021.46 1021.54 1022.26 1022.58 1022.82 1023.06 1023.10 1023.46 1023.62 1023.62
1023.78 1023.82 1023.82 1023.82 1023.82 1023.86 1023.82 1023.82 1023.78 1023.70 1023.66 1023.62 1023.58 1023.54 1023.58 1023.58 1023.54 1023.54 1023.50 1023.42 1023.38 1023.34 1023.30 1023.30 1023.26 1023.18 1023.14 1023.14 1022.98 1022.78 1022.58 1022.46 1022.30 1022.10 1021.78 1021.46 1021.38 1021.30 1021.30 1021.18 1020.74 1020.18 1020.34 1020.58 1020.70 1020.74 1021.30 1021.54 1021.54 1021.54 1021.42 1021.26 1020.90 1020.82 1021.54 1021.98 1022.58 1022.70 1022.82 1023.26 1023.54 1023.74 1023.94
1024.06 1024.10 1024.06 1023.98 1023.94 1024.02 1024.02 1024.02 1024.06 1024.06 1024.06 1024.02 1023.94 1023.94 1023.98 1023.90 1023.78 1023.74 1023.66 1023.54 1023.46 1023.42 1023.34 1023.26 1023.26 1023.30 1023.34 1023.30 1023.30 1023.26 1023.14 1023.06 1023.02 1022.82 1022.30 1021.86 1021.54 1021.26 1021.14 1021.06 1020.86 1020.50 1020.18 1020.14 1020.34 1020.70 1021.06 1021.46 1021.62 1021.70 1021.34 1020.86 1020.78 1021.30 1021.34 1021.78 1022.38 1022.78 1022.90 1023.26 1023.54 1023.78 1023.98
1024.50 1024.42 1024.42 1024.34 1024.26 1024.26 1024.26 1024.18 1024.14 1024.18 1024.14 1024.10 1024.06 1023.98 1023.98 1024.02 1023.94 1023.90 1023.86 1023.74 1023.66 1023.58 1023.50 1023.38 1023.30 1023.22 1023.22 1023.38 1023.38 1023.46 1023.50 1023.38 1023.26 1023.02 1022.70 1022.34 1021.98 1021.54 1021.22 1021.14 1020.98 1020.78 1020.58 1020.42 1020.34 1020.46 1020.78 1021.26 1021.54 1021.46 1021.26 1021.22 1021.38 1021.46 1021.62 1021.90 1022.26 1022.54 1022.78 1023.02 1023.34 1023.50 1023.74
1024.66 1024.62 1024.58 1024.46 1024.38 1024.34 1024.30 1024.30 1024.22 1024.26 1024.26 1024.22 1024.22 1024.06 1024.06 1024.06 1023.90 1023.82 1023.78 1023.74 1023.74 1023.78 1023.74 1023.70 1023.58 1023.46 1023.34 1023.30 1023.38 1023.38 1023.38 1023.34 1023.26 1023.02 1022.82 1022.42 1022.02 1021.70 1021.34 1021.10 1021.02 1021.02 1020.98 1020.86 1020.70 1020.58 1020.54 1021.02 1021.14 1021.14 1021.42 1021.46 1021.54 1021.66 1021.74 1022.02 1022.26 1022.42 1022.78 1023.22 1023.58 1023.86 1024.02
Thickness
5634 5632 5631 5631 5631 5632 5632 5631 5631 5630 5630 5630 5631 5631 5631 5631 5630 5628 5627 5626 5625 5625 5624 5624 5624 5624 5623 5623 5623 5623 5623 5622 5621 5620 5619 5617 5618 5617 5615 5616 5615 5615 5616 5615 5611 5607 5601 5595 5593 5594 5595 5596 5598 5597 5596 5596 5594 5592 5591 5589 5589 5588 5588
5633 5630 5629 5628 5629 5629 5629 5628 5628 5628 5628 5628 5629 5629 5629 5628 5627 5627 5626 5625 5624 5624 5624 5624 5624 5624 5623 5623 5622 5622 5621 5621 5620 5620 5619 5618 5618 5616 5615 5615 5615 5614 5614 5613 5613 5610 5606 5600 5595 5593 5594 5595 5595 5594 5595 5595 5593 5592 5590 5589 5588 5588 5587
5629 5627 5626 5625 5624 5626 5626 5626 5626 5625 5626 5626 5627 5627 5627 5626 5625 5625 5624 5624 5623 5623 5623 5623 5623 5623 5623 5623 5622 5621 5621 5620 5620 5619 5619 5618 5618 5616 5616 5615 5614 5612 5612 5610 5610 5609 5607 5603 5599 5595 5594 5595 5594 5592 5592 5593 5593 5591 5590 5590 5588 5588 5587
5626 5624 5622 5621 5621 5623 5623 5624 5624 5625 5625 5625 5625 5625 5625 5624 5624 5623 5623 5623 5622 5622 5621 5622 5622 5622 5623 5623 5623 5622 5621 5620 5619 5619 5618 5617 5617 5615 5615 5615 5614 5613 5612 5611 5610 5609 5607 5604 5600 5595 5593 5593 5592 5591 5591 5591 5591 5590 5590 5589 5589 5588 5586
5624 5622 5621 5621 5621 5622 5622 5622 5623 5623 5623 5623 5623 5623 5623 5623 5622 5622 5621 5621 5620 5620 5620 5620 5620 5621 5621 5622 5622 5622 5622 5620 5619 5617 5615 5615 5615 5614 5614 5614 5614 5613 5613 5612 5611 5610 5609 5606 5601 5595 5591 5592 5590 5588 5588 5588 5588 5588 5588 5587 5587 5586 5585
5622 5622 5621 5621 5621 5621 5620 5620 5620 5620 5620 5620 5620 5621 5621 5621 5620 5620 5620 5620 5619 5619 5620 5620 5619 5620 5620 5620 5621 5621 5621 5620 5619 5617 5614 5613 5612 5613 5613 5612 5612 5611 5611 5612 5611 5610 5608 5605 5601 5595 5590 5590 5589 5586 5586 5586 5586 5585 5585 5584 5584 5584 5583
5622 5621 5621 5620 5620 5619 5619 5619 5618 5617 5618 5618 5619 5620 5620 5619 5619 5619 5619 5619 5619 5619 5618 5618 5618 5618 5618 5618 5619 5619 5619 5619 5618 5616 5614 5612 5611 5611 5612 5611 5610 5610 5610 5610 5610 5609 5607 5604 5601 5597 5591 5588 5585 5584 5585 5584 5583 5583 5583 5581 5581 5580 5579
5621 5620 5620 5620 5619 5618 5617 5617 5616 5615 5616 5617 5617 5618 5618 5617 5617 5617 5618 5617 5617 5617 5617 5617 5616 5616 5616 5616 5616 5616 5617 5616 5615 5614 5613 5610 5609 5609 5610 5610 5609 5609 5608 5608 5608 5607 5607 5605 5602 5600 5596 5590 5583 5581 5582 5581 5581 5580 5580 5579 5578 5577 5577
5622 5620 5619 5618 5618 5616 5615 5615 5615 5614 5616 5617 5617 5617 5616 5616 5615 5616 5616 5615 5615 5615 5614 5614 5614 5614 5614 5614 5614 5613 5613 5613 5612 5611 5610 5609 5608 5607 5608 5608 5608 5607 5606 5606 5606 5605 5605 5604 5602 5601 5599 5596 5589 5581 5578 5577 5577 5578 5578 5577 5576 5576 5575
5621 5620 5618 5616 5615 5614 5614 5614 5614 5614 5615 5616 5616 5615 5614 5614 5613 5613 5613 5614 5613 5613 5612 5612 5612 5612 5611 5612 5611 5611 5611 5610 5609 5608 5607 5607 5606 5606 5606 5606 5605 5605 5604 5604 5603 5602 5602 5601 5600 5600 5599 5598 5594 5586 5579 5576 5576 5576 5576 5575 5575 5575 5574
5620 5618 5617 5615 5614 5614 5613 5614 5614 5614 5614 5614 5614 5613 5612 5612 5611 5611 5611 5611 5611 5611 5610 5609 5609 5609 5609 5608 5609 5608 5608 5607 5606 5605 5604 5604 5604 5603 5604 5603 5603 5602 5601 5601 5601 5600 5599 5598 5597 5596 5595 5594 5594 5589 5583 5578 5576 5575 5575 5573 5573 5573 5572
5619 5617 5616 5615 5614 5614 5614 5614 5614 5613 5612 5612 5611 5611 5610 5609 5609 5608 5608 5609 5609 5608 5607 5607 5607 5606 5607 5606 5606 5605 5605 5605 5604 5603 5602 5602 5602 5602 5602 5601 5600 5599 5598 5598 5598 5596 5596 5595 5593 5592 5591 5590 5589 5588 5585 5581 5578 5575 5574 5573 5572 5572 5571
5617 5615 5614 5613 5612 5612 5613 5613 5612 5611 5611 5610 5609 5609 5607 5607 5607 5606 5606 5606 5606 5606 5605 5606 5605 5604 5605 5604 5604 5604 5602 5602 5602 5601 5601 5601 5600 5600 5600 5600 5598 5597 5596 5596 5595 5594 5593 5592 5590 5589 5588 5586 5585 5584 5582 5581 5579 5576 5572 5572 5572 5571 5569
5615 5613 5612 5612 5611 5611 5611 5611 5610 5609 5609 5608 5607 5606 5604 5604 5603 5603 5603 5603 5603 5603 5603 5603 5603 5602 5603 5603 5602 5602 5602 5601 5601 5600 5600 5599 5599 5599 5598 5598 5596 5595 5595 5595 5594 5593 5591 5590 5588 5586 5584 5583 5582 5581 5580 5579 5578 5575 5571 5570 5570 5569 5568
5612 5612 5611 5610 5610 5610 5610 5609 5608 5607 5607 5606 5605 5604 5603 5601 5600 5599 5600 5600 5600 5601 5600 5600 5600 5600 5601 5601 5600 5600 5600 5600 5599 5599 5599 5599 5598 5597 5596 5596 5594 5593 5593 5593 5593 5591 5590 5588 5587 5585 5583 5582 5581 5580 5579 5578 5576 5573 5571 5570 5569 5568 5567
5611 5610 5609 5608 5607 5608 5607 5606 5606 5605 5604 5603 5601 5601 5600 5599 5597 5596 5596 5596 5597 5598 5598 5598 5598 5598 5598 5598 5599 5598 5598 5598 5597 5597 5598 5597 5596 5595 5595 5594 5592 5591 5591 5591 5590 5590 5589 5587 5586 5584 5582 5581 5580 5579 5578 5578 5576 5573 5571 5569 5568 5568 5566
5609 5607 5605 5604 5603 5603 5603 5603 5603 5602 5601 5599 5598 5597 5596 5596 5595 5594 5593 5593 5594 5594 5595 5595 5595 5595 5595 5596 5596 5596 5596 5595 5595 5595 5595 5595 5594 5593 5593 5592 5591 5590 5590 5589 5588 5587 5586 5585 5584 5583 5581 5579 5578 5577 5575 5575 5577 5574 5570 5568 5567 5565 5565
5605 5604 5602 5601 5599 5597 5598 5599 5599 5599 5598 5596 5594 5593 5593 5592 5592 5592 5592 5591 5591 5592 5592 5593 5593 5593 5593 5592 5593 5593 5594 5594 5594 5593 5593 5592 5592 5591 5591 5590 5590 5589 5588 5588 5586 5585 5584 5584 5582 5581 5580 5578 5576 5575 5573 5572 5573 5572 5570 5568 5566 5562 5561
5600 5599 5598 5597 5594 5593 5594 5594 5594 5594 5593 5593 5592 5591 5590 5589 5589 5589 5589 5589 5589 5589 5589 5590 5590 5590 5590 5590 5589 5590 5591 5591 5591 5591 5590 5589 5589 5588 5588 5588 5587 5587 5587 5587 5585 5584 5583 5582 5581 5580 5579 5577 5575 5573 5571 5569 5569 5570 5568 5566 5564 5561 5559
5594 5595 5594 5593 5591 5590 5590 5589 5589 5589 5588 5588 5588 5588 5588 5587 5586 5586 5586 5586 5586 5586 5587 5587 5587 5588 5588 5588 5587 5587 5587 5587 5588 5588 5587 5586 5585 5585 5585 5585 5585 5585 5585 5586 5586 5585 5583 5582 5581 5580 5578 5576 5574 5572 5570 5568 5567 5567 5566 5563 5561 5559 5558
5589 5589 5590 5590 5588 5587 5586 5585 5585 5584 5582 5582 5583 5584 5584 5584 5583 5583 5582 5583 5583 5583 5584 5584 5585 5586 5585 5585 5585 5585 5584 5584 5584 5584 5583 5582 5582 5582 5582 5582 5583 5583 5584 5584 5584 5584 5583 5582 5580 5578 5576 5575 5573 5572 5570 5568 5566 5565 5564 5562 5560 5557 5556
5583 5584 5584 5585 5583 5581 5581 5580 5578 5577 5577 5578 5578 5579 5581 5580 5580 5580 5580 5580 5581 5581 5582 5582 5583 5583 5583 5583 5583 5583 5582 5582 5581 5580 5580 5579 5579 5579 5579 5579 5579 5580 5580 5581 5581 5581 5580 5579 5578 5577 5575 5573 5572 5570 5568 5566 5564 5563 5561 5559 5558 5555 5553
5577 5577 5577 5578 5576 5575 5575 5574 5572 5572 5572 5572 5573 5575 5577 5577 5578 5578 5578 5579 5580 5581 5581 5581 5580 5580 5580 5581 5581 5581 5580 5580 5580 5579 5577 5577 5576 5576 5576 5576 5577 5577 5578 5577 5577 5577 5576 5576 5575 5575 5574 5572 5571 5569 5567 5564 5562 5561 5559 5558 5556 5554 5552
5570 5570 5570 5570 5570 5570 5570 5569 5568 5569 5569 5569 5570 5572 5573 5574 5574 5575 5575 5576 5577 5578 5578 5578 5578 5577 5577 5578 5577 5578 5578 5578 5578 5577 5576 5576 5575 5574 5574 5573 5573 5574 5575 5574 5573 5573 5572 5571 5572 5571 5571 5570 5570 5568 5566 5563 5560 5558 5557 5556 5553 5551 5551
5565 5565 5565 5565 5565 5565 5565 5565 5564 5565 5565 5565 5566 5568 5568 5569 5570 5571 5572 5573 5573 5573 5573 5573 5573 5573 5573 5573 5573 5574 5575 5575 5575 5575 5575 5575 5574 5573 5573 5572 5572 5572 5571 5571 5571 5570 5569 5569 5567 5566 5566 5565 5565 5564 5564 5562 5560 5556 5554 5553 5550 5548 5549
5558 5559 5559 5559 5561 5561 5562 5560 5559 5560 5559 5559 5561 5563 5562 5563 5565 5565 5567 5568 5568 5568 5567 5567 5568 5569 5569 5569 5569 5570 5571 5571 5571 5571 5572 5572 5572 5572 5572 5572 5572 5571 5570 5569 5569 5568 5567 5566 5564 5562 5561 5560 5559 5559 5558 5558 5558 5555 5553 5552 5550 5548 5547
5551 5552 5552 5553 5555 5555 5555 5554 5553 5554 5554 5554 5556 5557 5557 5558 5559 5559 5560 5561 5562 5562 5562 5561 5562 5563 5565 5565 5566 5566 5567 5567 5568 5568 5568 5569 5569 5570 5570 5571 5572 5571 5570 5568 5567 5565 5564 5562 5560 5558 5557 5557 5556 5555 5553 5552 5552 5552 5551 5550 5549 5548 5546
5544 5545 5546 5547 5548 5548 5547 5548 5548 5548 5549 5549 5550 5551 5552 5552 5552 5553 5554 5555 5556 5556 5555 5556 5557 5558 5559 5561 5562 5563 5563 5564 5564 5565 5566 5566 5566 5567 5567 5567 5567 5567 5566 5565 5563 5562 5560 5558 5556 5554 5553 5553 5552 5550 5549 5548 5547 5546 5546 5546 5546 5546 5544
5537 5538 5539 5541 5542 5541 5540 5541 5542 5543 5544 5545 5546 5547 5547 5546 5546 5547 5548 5549 5550 5550 5550 5551 5552 5553 5554 5555 5556 5558 5559 5559 5561 5561 5562 5563 5563 5564 5563 5562 5561 5561 5560 5559 5557 5556 5553 5552 5550 5549 5550 5549 5547 5545 5543 5542 5542 5542 5542 5542 5541 5540 5539
5531 5531 5532 5533 5534 5533 5532 5534 5535 5538 5539 5541 5542 5541 5540 5540 5540 5541 5542 5542 5543 5543 5544 5545 5546 5547 5549 5550 5551 5552 5553 5555 5556 5556 5558 5558 5558 5558 5557 5556 5555 5554 5554 5553 5552 5550 5547 5546 5546 5546 5545 5544 5542 5540 5539 5537 5536 5537 5536 5536 5536 5535 5533
5524 5525 5526 5526 5526 5526 5527 5527 5529 5531 5533 5535 5536 5534 5533 5534 5535 5534 5535 5535 5536 5537 5538 5539 5540 5541 5542 5543 5544 5546 5547 5549 5550 5552 5553 5554 5552 5551 5549 5549 5548 5549 5550 5550 5549 5546 5544 5543 5543 5541 5540 5539 5538 5537 5536 5533 5531 5530 5530 5529 5529 5528 5527
5518 5519 5520 5520 5520 5521 5522 5522 5523 5524 5526 5526 5527 5528 5528 5529 5529 5529 5529 5530 5530 5530 5531 5532 5534 5534 5535 5536 5537 5538 5540 5542 5544 5546 5547 5548 5548 5545 5544 5544 5546 5547 5547 5547 5545 5543 5540 5540 5539 5537 5535 5535 5535 5534 5533 5529 5526 5524 5524 5522 5521 5520 5519
5513 5514 5514 5514 5515 5515 5516 5516 5517 5518 5519 5520 5521 5522 5523 5523 5523 5524 5524 5525 5525 5525 5524 5525 5527 5527 5527 5528 5529 5531 5533 5534 5536 5538 5539 5540 5541 5539 5538 5539 5542 5543 5543 5542 5541 5538 5536 5534 5534 5532 5530 5530 5531 5531 5529 5524 5520 5518 5516 5514 5513 5512 5511
5509 5509 5509 5509 5509 5510 5510 5511 5512 5512 5513 5514 5515 5515 5516 5516 5517 5517 5518 5519 5519 5519 5518 5518 5519 5519 5520 5520 5521 5522 5523 5524 5526 5527 5530 5532 5533 5533 5532 5532 5535 5537 5536 5535 5534 5532 5529 5528 5527 5526 5525 5526 5527 5525 5522 5518 5513 5511 5509 5506 5504 5503 5501
5502 5502 5502 5503 5503 5503 5504 5505 5505 5506 5507 5507 5508 5508 5509 5509 5510 5510 5511 5512 5512 5512 5513 5512 5512 5511 5512 5512 5513 5513 5513 5514 5515 5516 5520 5522 5524 5525 5526 5526 5527 5528 5528 5528 5528 5526 5522 5519 5518 5518 5518 5519 5519 5517 5514 5510 5506 5503 5501 5499 5497 5495 5493
5493 5494 5494 5495 5496 5496 5497 5498 5499 5499 5500 5500 5501 5501 5502 5502 5503 5503 5503 5504 5504 5504 5505 5505 5505 5504 5504 5503 5504 5504 5504 5504 5506 5507 5510 5512 5514 5517 5519 5519 5519 5519 5519 5519 5519 5519 5516 5512 5511 5511 5510 5509 5508 5507 5505 5502 5499 5497 5495 5492 5490 5488 5487
5486 5487 5487 5489 5489 5490 5490 5491 5492 5492 5492 5493 5494 5494 5495 5496 5496 5497 5498 5498 5498 5497 5497 5497 5496 5496 5497 5496 5496 5496 5496 5497 5498 5499 5502 5504 5506 5509 5511 5512 5511 5510 5509 5510 5509 5510 5509 5506 5504 5503 5502 5500 5499 5499 5498 5496 5492 5490 5487 5484 5482 5480 5478